TimeCDT,TemperatureF,Dew PointF,Humidity,Sea Level PressureIn,VisibilityMPH,Wind Direction,Wind SpeedMPH,Gust SpeedMPH,PrecipitationIn,Events,Conditions,WindDirDegrees,DateUTC
12:55 AM,53.1,50.0,89,29.66,10.0,East,4.6,-,N/A,,Overcast,100,2013-04-08 05:55:00
1:20 AM,53.6,50.0,88,29.68,10.0,SE,10.4,-,N/A,,Overcast,140,2013-04-08 06:20:00
1:55 AM,53.1,50.0,89,29.65,10.0,SE,6.9,-,N/A,,Overcast,130,2013-04-08 06:55:00
2:55 AM,53.1,51.1,93,29.63,10.0,SE,5.8,-,N/A,,Overcast,130,2013-04-08 07:55:00
3:52 AM,53.6,51.8,94,29.65,10.0,SSE,5.8,-,N/A,,Overcast,150,2013-04-08 08:52:00
3:55 AM,54.0,52.0,93,29.62,8.0,SSE,4.6,-,N/A,,Overcast,150,2013-04-08 08:55:00
4:06 AM,53.6,53.6,100,29.65,6.0,Calm,Calm,-,N/A,,Overcast,0,2013-04-08 09:06:00
4:55 AM,54.0,53.1,97,29.62,6.0,Calm,Calm,-,N/A,,Overcast,0,2013-04-08 09:55:00
5:25 AM,55.4,53.6,94,29.65,2.5,SSE,3.5,-,N/A,,Overcast,160,2013-04-08 10:25:00
5:41 AM,57.2,55.4,94,29.65,1.8,South,6.9,-,N/A,,Overcast,190,2013-04-08 10:41:00
5:55 AM,57.9,57.0,97,29.64,2.0,South,6.9,-,N/A,,Overcast,170,2013-04-08 10:55:00
6:17 AM,57.2,57.2,100,29.64,1.8,South,8.1,-,N/A,,Overcast,180,2013-04-08 11:17:00
6:30 AM,57.2,57.2,100,29.65,2.5,South,9.2,-,N/A,,Overcast,190,2013-04-08 11:30:00
6:55 AM,57.9,57.0,97,29.64,2.5,Calm,Calm,-,N/A,,Overcast,0,2013-04-08 11:55:00
7:30 AM,57.2,57.2,100,29.65,1.8,SSW,3.5,-,N/A,,Overcast,200,2013-04-08 12:30:00
7:49 AM,57.2,57.2,100,29.65,1.2,SSW,6.9,-,N/A,,Overcast,200,2013-04-08 12:49:00
7:50 AM,57.9,57.0,97,29.65,1.2,SSW,6.9,-,N/A,,Overcast,200,2013-04-08 12:50:00
8:51 AM,59.0,57.2,94,29.67,1.5,SSW,5.8,-,N/A,,Overcast,200,2013-04-08 13:51:00
8:55 AM,59.0,57.9,96,29.67,1.5,South,8.1,-,N/A,,Overcast,190,2013-04-08 13:55:00
9:11 AM,60.8,57.2,88,29.67,2.0,SSW,6.9,-,N/A,,Overcast,200,2013-04-08 14:11:00
9:31 AM,60.8,59.0,94,29.67,3.0,South,4.6,-,N/A,,Overcast,190,2013-04-08 14:31:00
9:55 AM,60.1,57.9,93,29.67,4.0,South,8.1,-,N/A,,Overcast,190,2013-04-08 14:55:00
10:10 AM,60.8,59.0,94,29.66,6.0,South,8.1,-,N/A,,Overcast,190,2013-04-08 15:10:00
10:44 AM,62.6,59.0,88,29.67,3.0,South,6.9,-,N/A,,Overcast,190,2013-04-08 15:44:00
10:55 AM,62.1,60.1,93,29.66,4.0,South,6.9,-,N/A,,Overcast,180,2013-04-08 15:55:00
11:14 AM,62.6,60.8,94,29.68,6.0,South,5.8,-,N/A,,Overcast,180,2013-04-08 16:14:00
11:25 AM,64.4,60.8,88,29.67,7.0,South,8.1,-,N/A,,Overcast,170,2013-04-08 16:25:00
11:44 AM,66.2,60.8,83,29.67,10.0,South,9.2,-,N/A,,Overcast,170,2013-04-08 16:44:00
11:55 AM,66.0,59.0,78,29.65,10.0,SSE,8.1,-,N/A,,Overcast,160,2013-04-08 16:55:00
12:55 PM,68.0,59.0,73,29.64,10.0,South,13.8,-,N/A,,Overcast,170,2013-04-08 17:55:00
1:55 PM,71.1,60.1,68,29.61,10.0,SE,15.0,-,N/A,,Overcast,140,2013-04-08 18:55:00
2:21 PM,71.6,60.8,69,29.63,10.0,SE,15.0,-,N/A,,Overcast,140,2013-04-08 19:21:00
2:55 PM,72.0,59.0,64,29.59,10.0,SE,15.0,-,N/A,,Overcast,140,2013-04-08 19:55:00
3:55 PM,73.9,59.0,59,29.58,10.0,ESE,12.7,-,N/A,,Overcast,120,2013-04-08 20:55:00
4:55 PM,73.9,60.1,62,29.56,10.0,ESE,15.0,19.6,N/A,,Mostly Cloudy,110,2013-04-08 21:55:00
5:55 PM,73.0,57.9,59,29.55,10.0,ESE,15.0,25.3,N/A,,Partly Cloudy,120,2013-04-08 22:55:00
6:55 PM,70.0,57.9,65,29.57,10.0,SE,16.1,23.0,N/A,,Mostly Cloudy,130,2013-04-08 23:55:00
7:55 PM,66.9,57.9,73,29.57,10.0,ESE,17.3,23.0,N/A,,Mostly Cloudy,120,2013-04-09 00:55:00
8:55 PM,64.9,57.0,75,29.59,10.0,SE,17.3,-,N/A,,Mostly Cloudy,130,2013-04-09 01:55:00
9:55 PM,64.0,57.9,80,29.62,10.0,SE,11.5,-,N/A,,Overcast,130,2013-04-09 02:55:00
10:55 PM,63.0,57.9,84,29.58,10.0,SE,18.4,24.2,N/A,,Scattered Clouds,130,2013-04-09 03:55:00
11:55 PM,62.1,57.9,86,29.55,9.0,SE,20.7,25.3,N/A,,Clear,130,2013-04-09 04:55:00